TimeCDT,TemperatureF,Dew PointF,Humidity,Sea Level PressureIn,VisibilityMPH,Wind Direction,Wind SpeedMPH,Gust SpeedMPH,PrecipitationIn,Events,Conditions,WindDirDegrees,DateUTC
12:15 AM,55.4,55.4,100,29.68,10.0,SE,6.9,-,N/A,,Overcast,140,2013-05-28 05:15:00
12:35 AM,55.4,53.6,94,29.67,10.0,SSE,6.9,-,N/A,,Mostly Cloudy,150,2013-05-28 05:35:00
12:55 AM,55.4,53.6,94,29.68,10.0,South,9.2,-,N/A,,Mostly Cloudy,180,2013-05-28 05:55:00
1:15 AM,55.4,53.6,94,29.67,10.0,South,11.5,-,N/A,,Mostly Cloudy,180,2013-05-28 06:15:00
1:35 AM,55.4,53.6,94,29.67,10.0,South,11.5,-,N/A,,Mostly Cloudy,190,2013-05-28 06:35:00
1:55 AM,55.4,53.6,94,29.67,10.0,SSW,9.2,-,N/A,,Overcast,200,2013-05-28 06:55:00
2:15 AM,57.2,53.6,88,29.67,10.0,SSW,10.4,-,N/A,,Overcast,210,2013-05-28 07:15:00
2:35 AM,55.4,53.6,94,29.66,10.0,SW,11.5,-,N/A,,Overcast,230,2013-05-28 07:35:00
2:55 AM,55.4,51.8,88,29.66,10.0,SSW,11.5,17.3,N/A,,Overcast,210,2013-05-28 07:55:00
3:15 AM,55.4,51.8,88,29.65,10.0,SSW,9.2,-,N/A,,Overcast,210,2013-05-28 08:15:00
3:35 AM,55.4,51.8,88,29.65,10.0,SSW,12.7,-,N/A,,Overcast,210,2013-05-28 08:35:00
3:55 AM,53.6,50.0,88,29.65,10.0,SSW,11.5,-,N/A,,Overcast,200,2013-05-28 08:55:00
4:15 AM,53.6,50.0,88,29.65,10.0,SSW,10.4,-,N/A,,Overcast,200,2013-05-28 09:15:00
4:35 AM,53.6,50.0,88,29.65,10.0,SW,9.2,-,N/A,,Overcast,230,2013-05-28 09:35:00
4:55 AM,53.6,50.0,88,29.64,10.0,SSW,8.1,-,N/A,,Mostly Cloudy,200,2013-05-28 09:55:00
5:15 AM,53.6,51.8,94,29.64,10.0,SSW,6.9,-,N/A,,Mostly Cloudy,200,2013-05-28 10:15:00
5:35 AM,53.6,51.8,94,29.64,10.0,SSW,9.2,-,N/A,,Overcast,200,2013-05-28 10:35:00
5:55 AM,53.6,50.0,88,29.64,10.0,SSW,8.1,-,N/A,,Overcast,200,2013-05-28 10:55:00
6:15 AM,53.6,50.0,88,29.63,10.0,SSW,8.1,-,N/A,,Overcast,200,2013-05-28 11:15:00
6:35 AM,53.6,50.0,88,29.63,10.0,SSW,9.2,-,N/A,,Overcast,210,2013-05-28 11:35:00
6:55 AM,53.6,51.8,94,29.63,10.0,SSW,11.5,-,N/A,,Overcast,210,2013-05-28 11:55:00
7:15 AM,53.6,51.8,94,29.64,10.0,SW,10.4,-,N/A,,Overcast,220,2013-05-28 12:15:00
7:35 AM,55.4,53.6,94,29.63,10.0,West,9.2,-,N/A,,Overcast,260,2013-05-28 12:35:00
7:55 AM,55.4,53.6,94,29.63,10.0,WSW,11.5,-,N/A,,Overcast,250,2013-05-28 12:55:00
8:15 AM,55.4,53.6,94,29.63,10.0,West,10.4,-,N/A,,Overcast,260,2013-05-28 13:15:00
8:35 AM,57.2,53.6,88,29.63,10.0,West,15.0,21.9,N/A,,Overcast,270,2013-05-28 13:35:00
8:55 AM,57.2,53.6,88,29.64,10.0,West,11.5,-,N/A,,Overcast,270,2013-05-28 13:55:00
9:15 AM,59.0,55.4,88,29.63,10.0,West,12.7,-,N/A,,Mostly Cloudy,270,2013-05-28 14:15:00
9:35 AM,60.8,55.4,82,29.63,10.0,West,13.8,17.3,N/A,,Mostly Cloudy,270,2013-05-28 14:35:00
9:55 AM,60.8,55.4,82,29.64,10.0,West,13.8,-,N/A,,Overcast,260,2013-05-28 14:55:00
10:15 AM,62.6,53.6,72,29.64,10.0,West,15.0,-,N/A,,Mostly Cloudy,260,2013-05-28 15:15:00
10:35 AM,62.6,53.6,72,29.63,10.0,WNW,11.5,-,N/A,,Scattered Clouds,290,2013-05-28 15:35:00
10:55 AM,64.4,55.4,73,29.63,10.0,West,11.5,17.3,N/A,,Partly Cloudy,280,2013-05-28 15:55:00
11:15 AM,64.4,53.6,68,29.64,10.0,West,12.7,17.3,N/A,,Mostly Cloudy,280,2013-05-28 16:15:00
11:35 AM,64.4,53.6,68,29.64,10.0,WNW,17.3,-,N/A,,Mostly Cloudy,290,2013-05-28 16:35:00
11:55 AM,64.4,53.6,68,29.64,10.0,West,12.7,18.4,N/A,,Mostly Cloudy,280,2013-05-28 16:55:00
12:15 PM,64.4,53.6,68,29.64,10.0,West,11.5,17.3,N/A,,Mostly Cloudy,270,2013-05-28 17:15:00
12:35 PM,64.4,53.6,68,29.64,10.0,West,10.4,-,N/A,,Mostly Cloudy,270,2013-05-28 17:35:00
12:55 PM,66.2,53.6,64,29.64,10.0,WSW,9.2,-,N/A,,Mostly Cloudy,240,2013-05-28 17:55:00
1:15 PM,66.2,53.6,64,29.64,10.0,West,8.1,-,N/A,,Mostly Cloudy,270,2013-05-28 18:15:00
1:35 PM,66.2,53.6,64,29.65,10.0,NW,9.2,-,N/A,,Overcast,320,2013-05-28 18:35:00
1:55 PM,64.4,53.6,68,29.66,10.0,NNW,9.2,-,N/A,,Overcast,330,2013-05-28 18:55:00
2:15 PM,66.2,53.6,64,29.66,10.0,WNW,4.6,-,N/A,,Mostly Cloudy,300,2013-05-28 19:15:00
2:35 PM,66.2,53.6,64,29.65,10.0,WSW,9.2,-,N/A,,Mostly Cloudy,240,2013-05-28 19:35:00
2:55 PM,66.2,53.6,64,29.65,10.0,NW,5.8,-,N/A,,Mostly Cloudy,310,2013-05-28 19:55:00
3:15 PM,68.0,55.4,64,29.65,10.0,NNW,8.1,-,N/A,,Mostly Cloudy,340,2013-05-28 20:15:00
3:35 PM,68.0,53.6,60,29.65,10.0,WNW,4.6,-,N/A,,Partly Cloudy,300,2013-05-28 20:35:00
3:55 PM,69.8,53.6,56,29.64,10.0,NW,4.6,-,N/A,,Clear,310,2013-05-28 20:55:00
4:15 PM,69.8,53.6,56,29.64,10.0,West,4.6,-,N/A,,Scattered Clouds,280,2013-05-28 21:15:00
4:35 PM,69.8,53.6,56,29.65,10.0,NNW,6.9,-,N/A,,Mostly Cloudy,340,2013-05-28 21:35:00
4:55 PM,69.8,53.6,56,29.64,10.0,West,5.8,-,N/A,,Mostly Cloudy,270,2013-05-28 21:55:00
5:15 PM,71.6,51.8,50,29.64,10.0,NW,6.9,-,N/A,,Scattered Clouds,310,2013-05-28 22:15:00
5:35 PM,71.6,53.6,53,29.63,10.0,NNW,12.7,-,N/A,,Partly Cloudy,330,2013-05-28 22:35:00
5:55 PM,71.6,53.6,53,29.63,10.0,North,6.9,-,N/A,,Clear,350,2013-05-28 22:55:00
6:15 PM,71.6,51.8,50,29.64,10.0,NW,8.1,-,N/A,,Clear,310,2013-05-28 23:15:00
6:35 PM,71.6,53.6,53,29.64,10.0,WNW,8.1,-,N/A,,Clear,290,2013-05-28 23:35:00
6:55 PM,71.6,53.6,53,29.64,10.0,NNW,12.7,-,N/A,,Partly Cloudy,330,2013-05-28 23:55:00
7:15 PM,69.8,53.6,56,29.64,10.0,NW,11.5,-,N/A,,Partly Cloudy,320,2013-05-29 00:15:00
7:35 PM,68.0,53.6,60,29.64,10.0,NNW,5.8,-,N/A,,Clear,330,2013-05-29 00:35:00
7:55 PM,68.0,53.6,60,29.65,10.0,NNW,8.1,-,N/A,,Clear,330,2013-05-29 00:55:00
8:15 PM,68.0,51.8,56,29.65,10.0,NNW,6.9,-,N/A,,Clear,340,2013-05-29 01:15:00
8:35 PM,66.2,53.6,64,29.65,10.0,NNW,4.6,-,N/A,,Clear,340,2013-05-29 01:35:00
8:55 PM,66.2,53.6,64,29.65,10.0,NNW,3.5,-,N/A,,Clear,330,2013-05-29 01:55:00
9:15 PM,64.4,53.6,68,29.66,10.0,Calm,Calm,-,N/A,,Clear,0,2013-05-29 02:15:00
9:35 PM,59.0,53.6,82,29.65,10.0,Calm,Calm,-,N/A,,Clear,0,2013-05-29 02:35:00
9:55 PM,57.2,55.4,94,29.66,10.0,Calm,Calm,-,N/A,,Clear,0,2013-05-29 02:55:00
10:15 PM,55.4,51.8,88,29.67,10.0,Calm,Calm,-,N/A,,Clear,0,2013-05-29 03:15:00
10:35 PM,53.6,51.8,94,29.67,10.0,South,3.5,-,N/A,,Clear,170,2013-05-29 03:35:00
10:55 PM,53.6,51.8,94,29.68,10.0,South,3.5,-,N/A,,Partly Cloudy,170,2013-05-29 03:55:00
11:15 PM,53.6,50.0,88,29.68,10.0,SSE,3.5,-,N/A,,Scattered Clouds,160,2013-05-29 04:15:00
11:35 PM,51.8,50.0,94,29.68,10.0,SSE,4.6,-,N/A,,Scattered Clouds,160,2013-05-29 04:35:00
11:55 PM,51.8,50.0,94,29.69,10.0,SSE,4.6,-,N/A,,Partly Cloudy,150,2013-05-29 04:55:00